Regional Weather Roundup
Issued by NWS

Home | Current Version | Previous Version | Text Only | Print | Product List | Glossary Off
Versions: 1 2 3 4 5 6 7 8 9 10 11 12 13 14 15 16 17 18 19 20 21 22 23 24 25 26 27 28 29 30 31 32 33 34 35 36 37 38 39 40 41 42 43 44 45 46 47 48 49 50

291
ASUS44 KLIX 270305
RWRLA
LOUISIANA WEATHER ROUNDUP
NATIONAL WEATHER SERVICE NEW ORLEANS LA
900 PM CST MON JAN 26 2015

NOTE: "FAIR" INDICATES FEW OR NO CLOUDS BELOW 12,000 FEET WITH NO
      SIGNIFICANT WEATHER AND/OR OBSTRUCTIONS TO VISIBILITY.
      SKY/WX - SKY CONDITION AND SIGNIFICANT WEATHER.
      TMP - AIR TEMPERATURE.    DP   - DEWPOINT TEMPERATURE.
      RH  - RELATIVE HUMIDITY.  PRES - PRESSURE.
      HX  - HEAT INDEX.         WCI  - WIND CHILL INDEX.

*  THESE STATIONS ARE NOT NWS OR FAA STATIONS AND ARE NOT UNDER
   NWS QUALITY CONTROL.

LAZ040-048-061>063-065-066-069-270400-
SOUTHEAST LOUISIANA

CITY           SKY/WX    TMP DP  RH WIND       PRES   REMARKS
N.O. AUDUBON     N/A     51  38  61 MISG        N/A
N.O. INTL ARPT CLEAR     49  36  61 SW6       30.10F
N.O. LAKEFRONT CLEAR     54  46  74 W8        30.10F
N.O. DOWNTOWN* FAIR      55  34  44 CALM      30.11S
SLIDELL        CLEAR     44  36  73 CALM      30.07F
BATON ROUGE    CLEAR     46  36  68 SW5       30.10S
BOOTHVILLE     CLEAR     51  45  79 W7        30.11F
BELLE CHASSE   FAIR      47  35  63 W5        30.10S
BOGALUSA*        N/A     39  35  85 CALM      30.08F
GALLIANO*      CLEAR     48  43  82 MISG      30.12S
NEW ROADS*     FAIR      45  37  76 SW3       30.10S
GONZALES*      FAIR      49  35  58 SW3       30.11S
HAMMOND*       CLEAR     43  37  81 CALM      30.11R
HOUMA*         FAIR      46  41  85 SW3       30.12F
PORT FOURCHON* CLEAR     54  46  76 W9        30.16S

$$

LAZ041-044-053-054-270400-
SOUTHWEST LOUISIANA

CITY           SKY/WX    TMP DP  RH WIND       PRES   REMARKS
LAKE CHARLES   CLEAR     47  40  76 SW3       30.12F
LAFAYETTE      CLEAR     48  41  76 SW5       30.11F
PATTERSON      CLEAR     46  39  76 SW6       30.13F
SALT POINT       N/A     51  48  89 W3        30.12F
NEW IBERIA     CLEAR     48  42  80 SW6       30.13S
CHENAULT AIRPK CLEAR     46  41  81 CALM      30.12F

$$

LAZ027-028-270400-
CENTRAL LOUISIANA

CITY           SKY/WX    TMP DP  RH WIND       PRES   REMARKS
FORT POLK      CLEAR     51  38  63 W5        30.09S
ALEXANDRIA INT CLEAR     49  39  68 SW3       30.08S
ALEXANDRIA     CLEAR     41  37  86 CALM      30.09R

$$

LAZ001-002-270400-
NORTHWEST LOUISIANA

CITY           SKY/WX    TMP DP  RH WIND       PRES   REMARKS
SHREVEPORT     CLEAR     49  37  63 SW5       30.05F
BARKSDALE AFB  CLEAR     44  35  70 S5        30.06F
DTN SHREVEPORT CLEAR     50  34  54 SW3       30.06F

$$

LAZ014-016-270400-
NORTHEAST LOUISIANA

CITY           SKY/WX    TMP DP  RH WIND       PRES   REMARKS
MONROE         CLEAR     47  35  63 SW5       30.07R
TALLULAH       CLEAR     46  36  68 SW3       30.06R

$$




USA.gov is the U.S. government's official web portal to all federal, state and local government web resources and services.